Time,TemperatureF,DewpointF,PressureIn,WindDirection,WindDirectionDegrees,WindSpeedMPH,WindSpeedGustMPH,Humidity,HourlyPrecipIn,Conditions,Clouds,dailyrainin,SoftwareType,DateUTC
2013-02-05 00:00:00,32.0,30.6,29.34,WSW,248,10.0,13.0,94,0.00,,,0.00,meteohub,2013-02-05 00:00:00,
2013-02-05 00:05:00,32.2,30.9,29.31,WSW,248,11.0,18.0,95,0.00,,,0.00,meteohub,2013-02-05 00:05:00,
2013-02-05 00:10:00,32.4,31.3,29.31,WSW,248,15.0,18.0,96,0.00,,,0.00,meteohub,2013-02-05 00:10:00,
2013-02-05 00:15:00,32.4,31.6,29.31,WSW,248,12.0,20.0,97,0.00,,,0.00,meteohub,2013-02-05 00:15:00,
2013-02-05 00:21:00,32.5,32.0,29.31,WSW,248,17.0,20.0,98,0.00,,,0.00,meteohub,2013-02-05 00:21:00,
2013-02-05 00:26:00,32.5,32.0,29.31,WSW,248,18.0,21.0,98,0.00,,,0.00,meteohub,2013-02-05 00:26:00,
2013-02-05 00:31:00,32.4,31.8,29.31,WSW,248,10.0,23.0,98,0.00,,,0.00,meteohub,2013-02-05 00:31:00,
2013-02-05 00:37:00,32.4,31.8,29.31,SW,225,24.0,24.0,98,0.00,,,0.00,meteohub,2013-02-05 00:37:00,
2013-02-05 00:42:00,32.4,31.8,29.31,West,270,18.0,34.0,98,0.00,,,0.00,meteohub,2013-02-05 00:42:00,
2013-02-05 00:47:00,32.4,31.8,29.31,WSW,248,20.0,34.0,98,0.00,,,0.00,meteohub,2013-02-05 00:47:00,
2013-02-05 00:52:00,32.2,31.6,29.31,WSW,248,15.0,34.0,98,0.00,,,0.00,meteohub,2013-02-05 00:52:00,
2013-02-05 00:57:00,32.2,31.6,29.31,WSW,248,17.0,32.0,98,0.00,,,0.00,meteohub,2013-02-05 00:57:00,
2013-02-05 01:02:00,32.2,31.6,29.31,West,270,13.0,23.0,98,0.00,,,0.00,meteohub,2013-02-05 01:02:00,
2013-02-05 01:07:00,32.2,31.6,29.28,WSW,248,9.0,23.0,98,0.00,,,0.00,meteohub,2013-02-05 01:07:00,
2013-02-05 01:12:00,32.0,31.5,29.28,West,270,10.0,19.0,98,0.00,,,0.00,meteohub,2013-02-05 01:12:00,
2013-02-05 01:17:00,31.8,31.3,29.28,WSW,248,17.0,20.0,98,0.00,,,0.00,meteohub,2013-02-05 01:17:00,
2013-02-05 01:23:00,31.8,31.3,29.28,WSW,248,10.0,20.0,98,0.00,,,0.00,meteohub,2013-02-05 01:23:00,
2013-02-05 01:28:00,31.8,31.1,29.28,SW,225,18.0,20.0,97,0.00,,,0.00,meteohub,2013-02-05 01:28:00,
2013-02-05 01:33:00,31.8,31.1,29.28,West,270,15.0,20.0,97,0.00,,,0.00,meteohub,2013-02-05 01:33:00,
2013-02-05 01:38:00,32.0,31.3,29.31,SSW,202,11.0,19.0,97,0.00,,,0.00,meteohub,2013-02-05 01:38:00,
2013-02-05 01:43:00,32.2,31.5,29.31,West,270,11.0,18.0,97,0.00,,,0.00,meteohub,2013-02-05 01:43:00,
2013-02-05 01:48:00,32.2,31.5,29.28,WSW,248,13.0,19.0,97,0.00,,,0.00,meteohub,2013-02-05 01:48:00,
2013-02-05 01:53:00,32.2,31.6,29.28,WSW,248,10.0,25.0,98,0.00,,,0.00,meteohub,2013-02-05 01:53:00,
2013-02-05 01:58:00,32.2,31.6,29.28,SW,225,9.0,25.0,98,0.00,,,0.00,meteohub,2013-02-05 01:58:00,
2013-02-05 02:03:00,32.0,31.5,29.28,SSW,202,8.0,25.0,98,0.00,,,0.00,meteohub,2013-02-05 02:03:00,
2013-02-05 02:08:00,32.0,31.5,29.28,WSW,248,12.0,19.0,98,0.00,,,0.00,meteohub,2013-02-05 02:08:00,
2013-02-05 02:13:00,32.0,31.5,29.28,WSW,248,11.0,19.0,98,0.00,,,0.00,meteohub,2013-02-05 02:13:00,
2013-02-05 02:18:00,32.2,31.6,29.25,WSW,248,6.0,17.0,98,0.00,,,0.00,meteohub,2013-02-05 02:18:00,
2013-02-05 02:24:00,32.4,31.8,29.25,WSW,248,6.0,17.0,98,0.00,,,0.00,meteohub,2013-02-05 02:24:00,
2013-02-05 02:29:00,32.4,31.8,29.25,WSW,248,17.0,17.0,98,0.00,,,0.00,meteohub,2013-02-05 02:29:00,
2013-02-05 02:34:00,32.5,32.0,29.28,West,270,17.0,23.0,98,0.00,,,0.00,meteohub,2013-02-05 02:34:00,
2013-02-05 02:39:00,32.5,31.8,29.28,WSW,248,17.0,23.0,97,0.00,,,0.00,meteohub,2013-02-05 02:39:00,
2013-02-05 02:44:00,32.5,31.5,29.28,WSW,248,10.0,23.0,96,0.00,,,0.00,meteohub,2013-02-05 02:44:00,
2013-02-05 02:49:00,32.5,31.3,29.25,WSW,248,15.0,24.0,95,0.00,,,0.00,meteohub,2013-02-05 02:49:00,
2013-02-05 02:54:00,32.5,31.3,29.25,WSW,248,10.0,24.0,95,0.00,,,0.00,meteohub,2013-02-05 02:54:00,
2013-02-05 02:59:00,32.5,31.1,29.25,WSW,248,11.0,24.0,94,0.00,,,0.00,meteohub,2013-02-05 02:59:00,
2013-02-05 03:04:00,32.5,30.7,29.25,WSW,248,15.0,19.0,93,0.00,,,0.00,meteohub,2013-02-05 03:04:00,
2013-02-05 03:09:00,32.5,30.2,29.25,West,270,13.0,18.0,91,0.00,,,0.00,meteohub,2013-02-05 03:09:00,
2013-02-05 03:14:00,32.5,29.7,29.25,West,270,11.0,18.0,89,0.00,,,0.00,meteohub,2013-02-05 03:14:00,
2013-02-05 03:19:00,32.7,29.7,29.25,WSW,248,10.0,23.0,88,0.00,,,0.00,meteohub,2013-02-05 03:19:00,
2013-02-05 03:24:00,32.7,29.3,29.25,WSW,248,12.0,23.0,87,0.00,,,0.00,meteohub,2013-02-05 03:24:00,
2013-02-05 03:29:00,32.5,28.8,29.25,WSW,248,11.0,23.0,86,0.00,,,0.00,meteohub,2013-02-05 03:29:00,
2013-02-05 03:35:00,32.5,28.8,29.22,WSW,248,13.0,16.0,86,0.00,,,0.00,meteohub,2013-02-05 03:35:00,
2013-02-05 03:40:00,32.7,28.9,29.22,West,270,15.0,19.0,86,0.00,,,0.00,meteohub,2013-02-05 03:40:00,
2013-02-05 03:45:00,32.5,28.8,29.22,WSW,248,9.0,21.0,86,0.00,,,0.00,meteohub,2013-02-05 03:45:00,
2013-02-05 03:50:00,32.5,28.8,29.25,WSW,248,10.0,21.0,86,0.00,,,0.00,meteohub,2013-02-05 03:50:00,
2013-02-05 03:55:00,32.7,28.9,29.25,SW,225,12.0,17.0,86,0.00,,,0.00,meteohub,2013-02-05 03:55:00,
2013-02-05 04:00:00,32.7,28.9,29.25,WSW,248,8.0,21.0,86,0.00,,,0.00,meteohub,2013-02-05 04:00:00,
2013-02-05 04:05:00,32.7,28.9,29.22,WSW,248,11.0,21.0,86,0.00,,,0.00,meteohub,2013-02-05 04:05:00,
2013-02-05 04:10:00,32.9,29.1,29.22,WSW,248,13.0,21.0,86,0.00,,,0.00,meteohub,2013-02-05 04:10:00,
2013-02-05 04:15:00,32.9,29.1,29.22,West,270,6.0,17.0,86,0.00,,,0.00,meteohub,2013-02-05 04:15:00,
2013-02-05 04:20:00,32.7,28.8,29.22,WSW,248,8.0,17.0,85,0.00,,,0.00,meteohub,2013-02-05 04:20:00,
2013-02-05 04:25:00,32.7,28.8,29.22,WSW,248,13.0,17.0,85,0.00,,,0.00,meteohub,2013-02-05 04:25:00,
2013-02-05 04:30:00,32.9,28.9,29.22,WSW,248,11.0,18.0,85,0.00,,,0.00,meteohub,2013-02-05 04:30:00,
2013-02-05 04:35:00,32.9,28.6,29.22,WSW,248,11.0,18.0,84,0.00,,,0.00,meteohub,2013-02-05 04:35:00,
2013-02-05 04:40:00,32.9,28.6,29.22,WSW,248,13.0,18.0,84,0.00,,,0.00,meteohub,2013-02-05 04:40:00,
2013-02-05 04:45:00,32.9,28.6,29.22,WSW,248,13.0,17.0,84,0.00,,,0.00,meteohub,2013-02-05 04:45:00,
2013-02-05 04:50:00,32.9,28.4,29.22,WSW,248,13.0,18.0,83,0.00,,,0.00,meteohub,2013-02-05 04:50:00,
2013-02-05 04:56:00,33.1,28.6,29.22,West,270,14.0,18.0,83,0.00,,,0.00,meteohub,2013-02-05 04:56:00,
2013-02-05 05:00:00,33.3,28.8,29.22,WSW,248,10.0,18.0,83,0.00,,,0.00,meteohub,2013-02-05 05:00:00,
2013-02-05 05:01:00,33.3,28.9,29.22,West,270,13.0,18.0,84,0.00,,,0.00,meteohub,2013-02-05 05:01:00,
2013-02-05 05:05:00,33.3,28.9,29.22,WSW,248,11.0,17.0,84,0.00,,,0.00,meteohub,2013-02-05 05:05:00,
2013-02-05 05:10:00,33.3,28.9,29.22,WSW,248,17.0,17.0,84,0.00,,,0.00,meteohub,2013-02-05 05:10:00,
2013-02-05 05:13:00,33.3,28.9,29.22,WSW,248,11.0,17.0,84,0.00,,,0.00,meteohub,2013-02-05 05:13:00,
2013-02-05 05:18:00,33.3,28.8,29.19,WSW,248,11.0,17.0,83,0.00,,,0.00,meteohub,2013-02-05 05:18:00,
2013-02-05 05:23:00,33.1,28.6,29.19,WSW,248,8.0,17.0,83,0.00,,,0.00,meteohub,2013-02-05 05:23:00,
2013-02-05 05:28:00,32.9,28.4,29.19,West,270,15.0,17.0,83,0.00,,,0.00,meteohub,2013-02-05 05:28:00,
2013-02-05 05:33:00,32.9,28.6,29.19,West,270,10.0,19.0,84,0.00,,,0.00,meteohub,2013-02-05 05:33:00,
2013-02-05 05:38:00,32.9,28.6,29.19,West,270,8.0,19.0,84,0.00,,,0.00,meteohub,2013-02-05 05:38:00,
2013-02-05 05:43:00,33.1,28.6,29.19,West,270,11.0,19.0,83,0.00,,,0.00,meteohub,2013-02-05 05:43:00,
2013-02-05 05:48:00,33.3,28.8,29.19,WSW,248,17.0,18.0,83,0.00,,,0.00,meteohub,2013-02-05 05:48:00,
2013-02-05 05:54:00,33.4,28.8,29.19,West,270,15.0,30.0,83,0.00,,,0.00,meteohub,2013-02-05 05:54:00,
2013-02-05 05:59:00,33.4,28.8,29.19,WSW,248,11.0,30.0,83,0.00,,,0.00,meteohub,2013-02-05 05:59:00,
2013-02-05 06:04:00,33.3,28.0,29.19,WSW,248,24.0,30.0,81,0.00,,,0.00,meteohub,2013-02-05 06:04:00,
2013-02-05 06:09:00,33.3,28.0,29.19,SSW,202,15.0,26.0,81,0.00,,,0.00,meteohub,2013-02-05 06:09:00,
2013-02-05 06:14:00,33.3,28.4,29.19,WSW,248,11.0,26.0,82,0.00,,,0.00,meteohub,2013-02-05 06:14:00,
2013-02-05 06:19:00,33.1,28.8,29.19,WSW,248,15.0,26.0,84,0.00,,,0.00,meteohub,2013-02-05 06:19:00,
2013-02-05 06:24:00,33.1,29.3,29.19,WSW,248,11.0,25.0,86,0.00,,,0.00,meteohub,2013-02-05 06:24:00,
2013-02-05 06:29:00,33.1,29.8,29.19,WSW,248,13.0,22.0,88,0.00,,,0.00,meteohub,2013-02-05 06:29:00,
2013-02-05 06:34:00,33.1,30.2,29.19,WNW,292,15.0,20.0,89,0.00,,,0.00,meteohub,2013-02-05 06:34:00,
2013-02-05 06:39:00,32.7,30.2,29.19,WSW,248,13.0,23.0,90,0.00,,,0.00,meteohub,2013-02-05 06:39:00,
2013-02-05 06:44:00,32.7,30.2,29.19,West,270,12.0,23.0,90,0.00,,,0.00,meteohub,2013-02-05 06:44:00,
2013-02-05 06:49:00,32.7,30.2,29.19,WSW,248,15.0,23.0,90,0.00,,,0.00,meteohub,2013-02-05 06:49:00,
2013-02-05 06:54:00,32.7,30.2,29.19,WSW,248,11.0,20.0,90,0.00,,,0.00,meteohub,2013-02-05 06:54:00,
2013-02-05 06:59:00,32.7,30.2,29.19,WSW,248,14.0,20.0,90,0.00,,,0.00,meteohub,2013-02-05 06:59:00,
2013-02-05 07:04:00,32.7,29.8,29.16,WSW,248,12.0,20.0,89,0.00,,,0.00,meteohub,2013-02-05 07:04:00,
2013-02-05 07:09:00,32.9,30.0,29.16,WSW,248,9.0,20.0,89,0.00,,,0.00,meteohub,2013-02-05 07:09:00,
2013-02-05 07:15:00,33.1,29.8,29.16,SW,225,15.0,20.0,88,0.00,,,0.00,meteohub,2013-02-05 07:15:00,
2013-02-05 07:20:00,33.1,29.7,29.16,SW,225,17.0,18.0,87,0.00,,,0.00,meteohub,2013-02-05 07:20:00,
2013-02-05 07:25:00,33.3,29.5,29.16,WSW,248,11.0,18.0,86,0.00,,,0.00,meteohub,2013-02-05 07:25:00,
2013-02-05 07:30:00,33.4,29.1,29.16,WSW,248,13.0,18.0,84,0.00,,,0.00,meteohub,2013-02-05 07:30:00,
2013-02-05 07:35:00,33.6,28.8,29.16,WSW,248,15.0,18.0,82,0.00,,,0.00,meteohub,2013-02-05 07:35:00,
2013-02-05 07:40:00,33.8,28.2,29.16,SSW,202,11.0,20.0,80,0.00,,,0.00,meteohub,2013-02-05 07:40:00,
2013-02-05 07:45:00,33.8,28.0,29.16,SSW,202,11.0,20.0,79,0.00,,,0.00,meteohub,2013-02-05 07:45:00,
2013-02-05 07:50:00,34.0,27.9,29.16,WSW,248,13.0,22.0,78,0.00,,,0.00,meteohub,2013-02-05 07:50:00,
2013-02-05 07:55:00,34.0,28.2,29.16,WSW,248,13.0,22.0,79,0.00,,,0.00,meteohub,2013-02-05 07:55:00,
2013-02-05 08:00:00,34.3,28.8,29.16,SW,225,24.0,24.0,80,0.00,,,0.00,meteohub,2013-02-05 08:00:00,
2013-02-05 08:05:00,34.2,28.9,29.16,SW,225,11.0,24.0,81,0.00,,,0.00,meteohub,2013-02-05 08:05:00,
2013-02-05 08:10:00,34.5,28.9,29.16,WSW,248,11.0,24.0,80,0.00,,,0.00,meteohub,2013-02-05 08:10:00,
2013-02-05 08:15:00,34.7,28.9,29.16,SW,225,15.0,24.0,79,0.00,,,0.00,meteohub,2013-02-05 08:15:00,
2013-02-05 08:20:00,34.9,28.4,29.16,WSW,248,13.0,22.0,77,0.00,,,0.00,meteohub,2013-02-05 08:20:00,
2013-02-05 08:25:00,35.1,28.0,29.16,SW,225,18.0,19.0,75,0.00,,,0.00,meteohub,2013-02-05 08:25:00,
2013-02-05 08:30:00,35.4,27.3,29.16,WSW,248,17.0,25.0,72,0.00,,,0.00,meteohub,2013-02-05 08:30:00,
2013-02-05 08:35:00,35.6,26.8,29.16,WSW,248,15.0,25.0,70,0.00,,,0.00,meteohub,2013-02-05 08:35:00,
2013-02-05 08:41:00,35.6,26.4,29.16,WSW,248,11.0,25.0,69,0.00,,,0.00,meteohub,2013-02-05 08:41:00,
2013-02-05 08:46:00,35.6,26.1,29.16,SW,225,13.0,25.0,68,0.00,,,0.00,meteohub,2013-02-05 08:46:00,
2013-02-05 08:51:00,35.6,25.7,29.16,WSW,248,17.0,25.0,67,0.00,,,0.00,meteohub,2013-02-05 08:51:00,
2013-02-05 08:56:00,35.6,26.1,29.16,WSW,248,21.0,23.0,68,0.00,,,0.00,meteohub,2013-02-05 08:56:00,
2013-02-05 09:01:00,35.8,25.5,29.16,WSW,248,17.0,26.0,66,0.00,,,0.00,meteohub,2013-02-05 09:01:00,
2013-02-05 09:06:00,35.8,25.9,29.13,SSW,202,17.0,26.0,67,0.00,,,0.00,meteohub,2013-02-05 09:06:00,
2013-02-05 09:11:00,36.0,25.3,29.13,SW,225,24.0,26.0,65,0.01,,,0.01,meteohub,2013-02-05 09:11:00,
2013-02-05 09:16:00,36.3,25.0,29.13,SW,225,21.0,26.0,63,0.01,,,0.01,meteohub,2013-02-05 09:16:00,
2013-02-05 09:21:00,36.3,25.0,29.13,WSW,248,27.0,27.0,63,0.01,,,0.01,meteohub,2013-02-05 09:21:00,
2013-02-05 09:26:00,36.3,25.3,29.13,SSW,202,12.0,30.0,64,0.01,,,0.01,meteohub,2013-02-05 09:26:00,
2013-02-05 09:31:00,36.1,25.5,29.13,SW,225,18.0,30.0,65,0.02,,,0.02,meteohub,2013-02-05 09:31:00,
2013-02-05 09:36:00,36.0,26.4,29.13,SSW,202,21.0,30.0,68,0.03,,,0.03,meteohub,2013-02-05 09:36:00,
2013-02-05 09:41:00,35.6,27.5,29.13,SSW,202,15.0,28.0,72,0.03,,,0.03,meteohub,2013-02-05 09:41:00,
2013-02-05 09:46:00,35.1,28.6,29.13,SW,225,22.0,28.0,77,0.04,,,0.04,meteohub,2013-02-05 09:46:00,
2013-02-05 09:51:00,34.9,29.1,29.13,SW,225,21.0,28.0,79,0.04,,,0.04,meteohub,2013-02-05 09:51:00,
2013-02-05 09:56:00,34.7,30.4,29.13,SSW,202,10.0,27.0,84,0.05,,,0.05,meteohub,2013-02-05 09:56:00,
2013-02-05 10:01:00,34.5,31.1,29.13,SW,225,11.0,23.0,87,0.05,,,0.05,meteohub,2013-02-05 10:01:00,
2013-02-05 10:06:00,34.3,31.1,29.10,SW,225,17.0,23.0,88,0.06,,,0.06,meteohub,2013-02-05 10:06:00,
2013-02-05 10:11:00,34.3,31.5,29.10,SSW,202,11.0,23.0,89,0.05,,,0.06,meteohub,2013-02-05 10:11:00,
2013-02-05 10:17:00,34.3,32.0,29.10,WSW,248,13.0,20.0,91,0.06,,,0.07,meteohub,2013-02-05 10:17:00,
2013-02-05 10:22:00,34.5,32.4,29.10,SW,225,12.0,23.0,92,0.06,,,0.07,meteohub,2013-02-05 10:22:00,
2013-02-05 10:27:00,34.7,32.9,29.10,WSW,248,17.0,23.0,93,0.05,,,0.07,meteohub,2013-02-05 10:27:00,
2013-02-05 10:32:00,34.9,33.1,29.10,WSW,248,17.0,23.0,93,0.04,,,0.07,meteohub,2013-02-05 10:32:00,
2013-02-05 10:37:00,34.9,33.3,29.10,WSW,248,16.0,23.0,94,0.04,,,0.07,meteohub,2013-02-05 10:37:00,
2013-02-05 10:42:00,35.1,33.4,29.10,SW,225,10.0,23.0,94,0.05,,,0.08,meteohub,2013-02-05 10:42:00,
2013-02-05 10:47:00,35.1,33.4,29.10,SW,225,19.0,25.0,94,0.04,,,0.08,meteohub,2013-02-05 10:47:00,
2013-02-05 10:52:00,35.1,33.4,29.10,WSW,248,15.0,25.0,94,0.04,,,0.08,meteohub,2013-02-05 10:52:00,
2013-02-05 10:57:00,35.1,33.4,29.10,WSW,248,23.0,25.0,94,0.03,,,0.08,meteohub,2013-02-05 10:57:00,
2013-02-05 11:02:00,35.1,33.4,29.10,WSW,248,11.0,26.0,94,0.03,,,0.08,meteohub,2013-02-05 11:02:00,
2013-02-05 11:07:00,35.1,33.4,29.10,WSW,248,10.0,26.0,94,0.02,,,0.08,meteohub,2013-02-05 11:07:00,
2013-02-05 11:12:00,35.2,33.6,29.10,WSW,248,16.0,26.0,94,0.02,,,0.08,meteohub,2013-02-05 11:12:00,
2013-02-05 11:17:00,35.4,33.8,29.10,WSW,248,20.0,24.0,94,0.02,,,0.09,meteohub,2013-02-05 11:17:00,
2013-02-05 11:22:00,35.4,33.8,29.10,West,270,12.0,24.0,94,0.02,,,0.09,meteohub,2013-02-05 11:22:00,
2013-02-05 11:27:00,35.6,34.0,29.10,WSW,248,26.0,26.0,94,0.02,,,0.09,meteohub,2013-02-05 11:27:00,
2013-02-05 11:32:00,35.6,34.0,29.10,WSW,248,12.0,26.0,94,0.02,,,0.09,meteohub,2013-02-05 11:32:00,
2013-02-05 11:37:00,35.8,34.2,29.07,WSW,248,18.0,26.0,94,0.02,,,0.09,meteohub,2013-02-05 11:37:00,
2013-02-05 11:42:00,36.0,34.3,29.07,WSW,248,10.0,26.0,94,0.01,,,0.09,meteohub,2013-02-05 11:42:00,
2013-02-05 11:48:00,36.3,34.7,29.07,WSW,248,10.0,23.0,94,0.01,,,0.09,meteohub,2013-02-05 11:48:00,
2013-02-05 11:53:00,36.7,35.4,29.07,West,270,6.0,23.0,95,0.01,,,0.09,meteohub,2013-02-05 11:53:00,
2013-02-05 11:58:00,36.9,35.6,29.07,West,270,10.0,23.0,95,0.01,,,0.09,meteohub,2013-02-05 11:58:00,
2013-02-05 12:03:00,37.0,35.8,29.07,WSW,248,8.0,20.0,95,0.01,,,0.09,meteohub,2013-02-05 12:03:00,
2013-02-05 12:08:00,37.2,36.0,29.07,SW,225,8.0,20.0,95,0.01,,,0.09,meteohub,2013-02-05 12:08:00,
2013-02-05 12:13:00,37.4,36.1,29.07,WSW,248,7.0,19.0,95,0.01,,,0.09,meteohub,2013-02-05 12:13:00,
2013-02-05 12:18:00,37.6,36.3,29.07,WSW,248,13.0,19.0,95,0.00,,,0.09,meteohub,2013-02-05 12:18:00,
2013-02-05 12:23:00,37.9,36.7,29.07,WSW,248,13.0,19.0,95,0.00,,,0.09,meteohub,2013-02-05 12:23:00,
2013-02-05 12:28:00,38.5,37.2,29.07,WSW,248,12.0,19.0,95,0.00,,,0.09,meteohub,2013-02-05 12:28:00,
2013-02-05 12:33:00,38.8,37.6,29.07,West,270,14.0,20.0,95,0.00,,,0.09,meteohub,2013-02-05 12:33:00,
2013-02-05 12:38:00,39.0,37.4,29.07,West,270,14.0,20.0,94,0.00,,,0.09,meteohub,2013-02-05 12:38:00,
2013-02-05 12:43:00,39.4,37.6,29.07,West,270,13.0,20.0,93,0.00,,,0.09,meteohub,2013-02-05 12:43:00,
2013-02-05 12:48:00,39.9,37.8,29.07,WSW,248,13.0,19.0,92,0.00,,,0.09,meteohub,2013-02-05 12:48:00,
2013-02-05 12:53:00,40.3,38.1,29.07,WSW,248,15.0,19.0,92,0.00,,,0.09,meteohub,2013-02-05 12:53:00,
2013-02-05 12:58:00,40.5,37.8,29.07,WSW,248,13.0,20.0,90,0.00,,,0.09,meteohub,2013-02-05 12:58:00,
2013-02-05 13:03:00,40.6,37.6,29.10,WSW,248,7.0,20.0,89,0.00,,,0.09,meteohub,2013-02-05 13:03:00,
2013-02-05 13:08:00,40.6,37.0,29.10,West,270,8.0,20.0,87,0.00,,,0.09,meteohub,2013-02-05 13:08:00,
2013-02-05 13:14:00,40.6,36.9,29.10,WSW,248,8.0,18.0,86,0.00,,,0.09,meteohub,2013-02-05 13:14:00,
2013-02-05 13:19:00,40.8,37.0,29.10,WSW,248,13.0,18.0,86,0.00,,,0.09,meteohub,2013-02-05 13:19:00,
2013-02-05 13:24:00,41.0,36.9,29.10,West,270,13.0,18.0,85,0.00,,,0.09,meteohub,2013-02-05 13:24:00,
2013-02-05 13:29:00,41.0,36.9,29.10,WSW,248,10.0,15.0,85,0.00,,,0.09,meteohub,2013-02-05 13:29:00,
2013-02-05 13:34:00,41.0,36.9,29.10,SSW,202,5.0,16.0,85,0.00,,,0.09,meteohub,2013-02-05 13:34:00,
2013-02-05 13:39:00,41.2,37.0,29.10,WSW,248,8.0,16.0,85,0.00,,,0.09,meteohub,2013-02-05 13:39:00,
2013-02-05 13:44:00,41.2,36.7,29.10,SW,225,11.0,16.0,84,0.00,,,0.09,meteohub,2013-02-05 13:44:00,
2013-02-05 13:49:00,41.2,36.7,29.10,WSW,248,8.0,15.0,84,0.00,,,0.09,meteohub,2013-02-05 13:49:00,
2013-02-05 13:54:00,41.4,36.7,29.10,West,270,8.0,13.0,83,0.00,,,0.09,meteohub,2013-02-05 13:54:00,
2013-02-05 13:59:00,41.5,36.9,29.10,WSW,248,6.0,13.0,83,0.00,,,0.09,meteohub,2013-02-05 13:59:00,
2013-02-05 14:04:00,41.5,36.5,29.10,WSW,248,6.0,11.0,82,0.00,,,0.09,meteohub,2013-02-05 14:04:00,
2013-02-05 14:09:00,41.5,36.1,29.10,WSW,248,8.0,10.0,81,0.00,,,0.09,meteohub,2013-02-05 14:09:00,
2013-02-05 14:14:00,41.7,36.0,29.10,WSW,248,13.0,13.0,80,0.00,,,0.09,meteohub,2013-02-05 14:14:00,
2013-02-05 14:19:00,41.9,35.6,29.10,West,270,13.0,16.0,78,0.00,,,0.09,meteohub,2013-02-05 14:19:00,
2013-02-05 14:24:00,41.9,35.2,29.10,WSW,248,8.0,16.0,77,0.00,,,0.09,meteohub,2013-02-05 14:24:00,
2013-02-05 14:29:00,42.1,35.1,29.10,WSW,248,7.0,16.0,76,0.00,,,0.09,meteohub,2013-02-05 14:29:00,
2013-02-05 14:35:00,42.1,34.3,29.10,West,270,9.0,17.0,74,0.00,,,0.09,meteohub,2013-02-05 14:35:00,
2013-02-05 14:40:00,42.3,34.2,29.10,West,270,9.0,17.0,73,0.00,,,0.09,meteohub,2013-02-05 14:40:00,
2013-02-05 14:45:00,42.4,34.2,29.10,West,270,15.0,18.0,72,0.00,,,0.09,meteohub,2013-02-05 14:45:00,
2013-02-05 14:50:00,42.6,34.2,29.10,WNW,292,21.0,21.0,72,0.00,,,0.09,meteohub,2013-02-05 14:50:00,
2013-02-05 14:55:00,42.8,33.4,29.10,WNW,292,19.0,24.0,69,0.00,,,0.09,meteohub,2013-02-05 14:55:00,
2013-02-05 15:00:00,43.0,32.4,29.10,NW,315,23.0,24.0,66,0.00,,,0.09,meteohub,2013-02-05 15:00:00,
2013-02-05 15:05:00,43.2,31.5,29.13,NW,315,11.0,27.0,63,0.00,,,0.09,meteohub,2013-02-05 15:05:00,
2013-02-05 15:10:00,43.3,30.0,29.13,NNW,338,15.0,29.0,59,0.00,,,0.09,meteohub,2013-02-05 15:10:00,
2013-02-05 15:15:00,43.5,30.9,29.13,West,270,15.0,29.0,61,0.00,,,0.09,meteohub,2013-02-05 15:15:00,
2013-02-05 15:20:00,43.5,31.5,29.13,WNW,292,11.0,29.0,62,0.00,,,0.09,meteohub,2013-02-05 15:20:00,
2013-02-05 15:25:00,43.7,31.6,29.13,West,270,19.0,23.0,62,0.00,,,0.09,meteohub,2013-02-05 15:25:00,
2013-02-05 15:30:00,43.7,30.4,29.13,West,270,17.0,24.0,59,0.00,,,0.09,meteohub,2013-02-05 15:30:00,
2013-02-05 15:35:00,44.1,31.1,29.13,West,270,9.0,24.0,60,0.00,,,0.09,meteohub,2013-02-05 15:35:00,
2013-02-05 15:40:00,44.1,31.1,29.13,WSW,248,11.0,24.0,60,0.00,,,0.09,meteohub,2013-02-05 15:40:00,
2013-02-05 15:45:00,43.7,30.7,29.13,West,270,13.0,20.0,60,0.00,,,0.09,meteohub,2013-02-05 15:45:00,
2013-02-05 15:50:00,43.7,30.7,29.16,WNW,292,11.0,17.0,60,0.00,,,0.09,meteohub,2013-02-05 15:50:00,
2013-02-05 15:55:00,43.5,30.9,29.16,West,270,12.0,17.0,61,0.00,,,0.09,meteohub,2013-02-05 15:55:00,
2013-02-05 16:01:00,43.3,30.7,29.16,WNW,292,18.0,18.0,61,0.00,,,0.09,meteohub,2013-02-05 16:01:00,
2013-02-05 16:06:00,43.3,29.7,29.16,West,270,10.0,18.0,58,0.00,,,0.09,meteohub,2013-02-05 16:06:00,
2013-02-05 16:11:00,43.3,30.0,29.16,West,270,8.0,18.0,59,0.00,,,0.09,meteohub,2013-02-05 16:11:00,
2013-02-05 16:16:00,43.3,30.7,29.16,WNW,292,12.0,18.0,61,0.00,,,0.09,meteohub,2013-02-05 16:16:00,
2013-02-05 16:21:00,43.3,30.4,29.19,WNW,292,13.0,15.0,60,0.00,,,0.09,meteohub,2013-02-05 16:21:00,
2013-02-05 16:26:00,43.0,30.0,29.19,WNW,292,9.0,15.0,60,0.00,,,0.09,meteohub,2013-02-05 16:26:00,
2013-02-05 16:31:00,42.6,30.2,29.19,WNW,292,11.0,15.0,61,0.00,,,0.09,meteohub,2013-02-05 16:31:00,
2013-02-05 16:36:00,42.8,29.8,29.19,WNW,292,13.0,14.0,60,0.00,,,0.09,meteohub,2013-02-05 16:36:00,
2013-02-05 16:41:00,42.6,30.6,29.19,WNW,292,6.0,14.0,62,0.00,,,0.09,meteohub,2013-02-05 16:41:00,
2013-02-05 16:46:00,42.3,30.2,29.19,West,270,11.0,14.0,62,0.00,,,0.09,meteohub,2013-02-05 16:46:00,
2013-02-05 16:51:00,42.3,30.6,29.19,West,270,8.0,13.0,63,0.00,,,0.09,meteohub,2013-02-05 16:51:00,
2013-02-05 16:56:00,42.1,30.7,29.19,West,270,9.0,12.0,64,0.00,,,0.09,meteohub,2013-02-05 16:56:00,
2013-02-05 17:01:00,42.1,30.7,29.19,WNW,292,9.0,12.0,64,0.00,,,0.09,meteohub,2013-02-05 17:01:00,
2013-02-05 17:07:00,42.1,31.3,29.22,WNW,292,9.0,12.0,65,0.00,,,0.09,meteohub,2013-02-05 17:07:00,
2013-02-05 17:12:00,42.1,30.7,29.22,WNW,292,11.0,12.0,64,0.00,,,0.09,meteohub,2013-02-05 17:12:00,
2013-02-05 17:17:00,42.1,31.3,29.22,West,270,6.0,12.0,65,0.00,,,0.09,meteohub,2013-02-05 17:17:00,
2013-02-05 17:22:00,41.7,30.9,29.22,WNW,292,10.0,15.0,65,0.00,,,0.09,meteohub,2013-02-05 17:22:00,
2013-02-05 17:27:00,41.7,30.9,29.22,West,270,11.0,15.0,65,0.00,,,0.09,meteohub,2013-02-05 17:27:00,
2013-02-05 17:32:00,41.5,30.4,29.22,NW,315,12.0,15.0,64,0.00,,,0.09,meteohub,2013-02-05 17:32:00,
2013-02-05 17:37:00,41.7,30.0,29.22,WNW,292,10.0,14.0,63,0.00,,,0.09,meteohub,2013-02-05 17:37:00,
2013-02-05 17:42:00,41.7,29.7,29.22,WNW,292,15.0,16.0,62,0.00,,,0.09,meteohub,2013-02-05 17:42:00,
2013-02-05 17:47:00,41.5,29.8,29.22,WNW,292,8.0,16.0,63,0.00,,,0.09,meteohub,2013-02-05 17:47:00,
2013-02-05 17:52:00,41.5,29.8,29.25,WNW,292,13.0,16.0,63,0.00,,,0.09,meteohub,2013-02-05 17:52:00,
2013-02-05 17:57:00,41.5,29.5,29.25,NW,315,15.0,18.0,62,0.00,,,0.09,meteohub,2013-02-05 17:57:00,
2013-02-05 18:02:00,41.5,29.5,29.25,NW,315,10.0,20.0,62,0.00,,,0.09,meteohub,2013-02-05 18:02:00,
2013-02-05 18:07:00,41.2,29.1,29.25,WNW,292,8.0,20.0,62,0.00,,,0.09,meteohub,2013-02-05 18:07:00,
2013-02-05 18:12:00,41.0,29.5,29.25,WNW,292,12.0,20.0,63,0.00,,,0.09,meteohub,2013-02-05 18:12:00,
2013-02-05 18:18:00,41.0,29.5,29.25,West,270,13.0,15.0,63,0.00,,,0.09,meteohub,2013-02-05 18:18:00,
2013-02-05 18:23:00,41.2,29.1,29.25,NW,315,8.0,19.0,62,0.00,,,0.09,meteohub,2013-02-05 18:23:00,
2013-02-05 18:28:00,41.2,29.7,29.25,NNW,338,9.0,19.0,63,0.00,,,0.09,meteohub,2013-02-05 18:28:00,
2013-02-05 18:33:00,41.0,29.5,29.28,West,270,15.0,19.0,63,0.00,,,0.09,meteohub,2013-02-05 18:33:00,
2013-02-05 18:38:00,41.0,29.8,29.28,WNW,292,16.0,21.0,64,0.00,,,0.09,meteohub,2013-02-05 18:38:00,
2013-02-05 18:43:00,41.0,29.8,29.28,WNW,292,12.0,21.0,64,0.00,,,0.09,meteohub,2013-02-05 18:43:00,
2013-02-05 18:48:00,41.2,30.0,29.28,NW,315,17.0,21.0,64,0.00,,,0.09,meteohub,2013-02-05 18:48:00,
2013-02-05 18:53:00,41.4,29.7,29.28,NW,315,15.0,20.0,63,0.00,,,0.09,meteohub,2013-02-05 18:53:00,
2013-02-05 18:58:00,41.4,29.3,29.28,WNW,292,15.0,20.0,62,0.00,,,0.09,meteohub,2013-02-05 18:58:00,
2013-02-05 19:03:00,41.2,29.7,29.31,WNW,292,13.0,20.0,63,0.00,,,0.09,meteohub,2013-02-05 19:03:00,
2013-02-05 19:08:00,41.2,29.7,29.31,West,270,15.0,19.0,63,0.00,,,0.09,meteohub,2013-02-05 19:08:00,
2013-02-05 19:13:00,41.4,29.7,29.31,NW,315,17.0,30.0,63,0.00,,,0.09,meteohub,2013-02-05 19:13:00,
2013-02-05 19:18:00,41.5,29.5,29.31,WNW,292,31.0,31.0,62,0.00,,,0.09,meteohub,2013-02-05 19:18:00,
2013-02-05 19:23:00,41.5,29.1,29.31,NW,315,17.0,31.0,61,0.00,,,0.09,meteohub,2013-02-05 19:23:00,
2013-02-05 19:28:00,41.7,28.9,29.31,NW,315,26.0,31.0,60,0.00,,,0.09,meteohub,2013-02-05 19:28:00,
2013-02-05 19:34:00,42.1,28.8,29.28,WNW,292,26.0,31.0,59,0.00,,,0.09,meteohub,2013-02-05 19:34:00,
2013-02-05 19:39:00,42.1,28.8,29.28,NW,315,15.0,37.0,59,0.00,,,0.09,meteohub,2013-02-05 19:39:00,
2013-02-05 19:44:00,41.9,29.5,29.28,NNW,338,29.0,37.0,61,0.00,,,0.09,meteohub,2013-02-05 19:44:00,
2013-02-05 19:49:00,41.9,29.8,29.31,North,0,18.0,37.0,62,0.00,,,0.09,meteohub,2013-02-05 19:49:00,
2013-02-05 19:54:00,41.7,30.0,29.31,NNW,338,17.0,32.0,63,0.00,,,0.09,meteohub,2013-02-05 19:54:00,
2013-02-05 19:59:00,41.7,30.0,29.31,NW,315,23.0,32.0,63,0.00,,,0.09,meteohub,2013-02-05 19:59:00,
2013-02-05 20:02:00,41.7,30.0,29.31,NW,315,18.0,32.0,63,0.00,,,0.09,meteohub,2013-02-05 20:02:00,
2013-02-05 20:17:00,41.5,29.5,29.34,NW,315,17.0,30.0,62,0.00,,,0.09,meteohub,2013-02-05 20:17:00,
2013-02-05 20:23:00,41.5,29.5,29.34,NW,315,21.0,30.0,62,0.00,,,0.09,meteohub,2013-02-05 20:23:00,
2013-02-05 20:28:00,41.5,29.5,29.34,NNW,338,15.0,30.0,62,0.00,,,0.09,meteohub,2013-02-05 20:28:00,
2013-02-05 20:33:00,41.5,29.1,29.36,NW,315,17.0,27.0,61,0.00,,,0.09,meteohub,2013-02-05 20:33:00,
2013-02-05 20:38:00,41.5,29.1,29.36,NNW,338,15.0,32.0,61,0.00,,,0.09,meteohub,2013-02-05 20:38:00,
2013-02-05 20:43:00,41.4,28.6,29.36,NW,315,17.0,32.0,60,0.00,,,0.09,meteohub,2013-02-05 20:43:00,
2013-02-05 20:48:00,41.5,28.4,29.36,NNW,338,31.0,32.0,59,0.00,,,0.09,meteohub,2013-02-05 20:48:00,
2013-02-05 20:53:00,41.5,28.4,29.36,NNW,338,23.0,31.0,59,0.00,,,0.09,meteohub,2013-02-05 20:53:00,
2013-02-05 20:58:00,41.4,28.2,29.36,NNW,338,20.0,31.0,59,0.00,,,0.09,meteohub,2013-02-05 20:58:00,
2013-02-05 21:03:00,41.5,28.4,29.36,NNW,338,17.0,31.0,59,0.00,,,0.09,meteohub,2013-02-05 21:03:00,
2013-02-05 21:08:00,41.4,28.2,29.36,NNW,338,23.0,34.0,59,0.00,,,0.09,meteohub,2013-02-05 21:08:00,
2013-02-05 21:13:00,41.4,28.2,29.36,NNW,338,23.0,34.0,59,0.00,,,0.09,meteohub,2013-02-05 21:13:00,
2013-02-05 21:18:00,41.2,28.4,29.39,NW,315,29.0,34.0,60,0.00,,,0.09,meteohub,2013-02-05 21:18:00,
2013-02-05 21:23:00,41.2,28.4,29.39,NNW,338,24.0,30.0,60,0.00,,,0.09,meteohub,2013-02-05 21:23:00,
2013-02-05 21:28:00,41.2,28.4,29.39,NNW,338,17.0,29.0,60,0.00,,,0.09,meteohub,2013-02-05 21:28:00,
2013-02-05 21:33:00,41.0,28.6,29.42,North,0,14.0,29.0,61,0.00,,,0.09,meteohub,2013-02-05 21:33:00,
2013-02-05 21:39:00,40.6,29.1,29.42,North,0,22.0,28.0,63,0.00,,,0.09,meteohub,2013-02-05 21:39:00,
2013-02-05 21:44:00,40.8,29.3,29.42,North,0,21.0,28.0,63,0.00,,,0.09,meteohub,2013-02-05 21:44:00,
2013-02-05 21:49:00,40.6,29.1,29.42,North,0,25.0,28.0,63,0.00,,,0.09,meteohub,2013-02-05 21:49:00,
2013-02-05 21:54:00,41.0,28.6,29.42,NNW,338,31.0,31.0,61,0.00,,,0.09,meteohub,2013-02-05 21:54:00,
2013-02-05 21:59:00,41.2,28.4,29.42,North,0,32.0,39.0,60,0.00,,,0.09,meteohub,2013-02-05 21:59:00,
2013-02-05 22:04:00,41.2,28.0,29.42,North,0,31.0,39.0,59,0.00,,,0.09,meteohub,2013-02-05 22:04:00,
2013-02-05 22:09:00,41.2,27.5,29.42,NNW,338,25.0,39.0,58,0.00,,,0.09,meteohub,2013-02-05 22:09:00,
2013-02-05 22:14:00,41.2,27.1,29.42,NNW,338,38.0,38.0,57,0.00,,,0.09,meteohub,2013-02-05 22:14:00,
2013-02-05 22:19:00,41.2,27.5,29.45,NNW,338,28.0,38.0,58,0.00,,,0.09,meteohub,2013-02-05 22:19:00,
2013-02-05 22:24:00,41.0,27.3,29.45,NNW,338,27.0,38.0,58,0.00,,,0.09,meteohub,2013-02-05 22:24:00,
2013-02-05 22:29:00,40.8,27.7,29.45,North,0,30.0,38.0,59,0.00,,,0.09,meteohub,2013-02-05 22:29:00,
2013-02-05 22:34:00,40.6,27.1,29.48,North,0,26.0,32.0,58,0.00,,,0.09,meteohub,2013-02-05 22:34:00,
2013-02-05 22:39:00,40.6,27.1,29.48,NNW,338,26.0,37.0,58,0.00,,,0.09,meteohub,2013-02-05 22:39:00,
2013-02-05 22:44:00,40.5,27.0,29.48,NNW,338,30.0,37.0,58,0.00,,,0.09,meteohub,2013-02-05 22:44:00,
2013-02-05 22:50:00,40.5,27.0,29.48,NNW,338,31.0,37.0,58,0.00,,,0.09,meteohub,2013-02-05 22:50:00,
2013-02-05 22:55:00,40.5,27.0,29.48,North,0,31.0,35.0,58,0.00,,,0.09,meteohub,2013-02-05 22:55:00,
2013-02-05 23:00:00,40.5,27.3,29.48,NNW,338,23.0,35.0,59,0.00,,,0.09,meteohub,2013-02-05 23:00:00,
2013-02-05 23:05:00,40.3,27.5,29.51,NNW,338,22.0,35.0,60,0.00,,,0.09,meteohub,2013-02-05 23:05:00,
2013-02-05 23:10:00,40.3,28.4,29.51,North,0,23.0,30.0,62,0.00,,,0.09,meteohub,2013-02-05 23:10:00,
2013-02-05 23:16:00,40.1,28.9,29.51,NNW,338,25.0,30.0,64,0.00,,,0.09,meteohub,2013-02-05 23:16:00,
2013-02-05 23:21:00,39.9,29.5,29.54,North,0,25.0,30.0,66,0.00,,,0.09,meteohub,2013-02-05 23:21:00,
2013-02-05 23:26:00,39.9,29.5,29.54,North,0,19.0,32.0,66,0.00,,,0.09,meteohub,2013-02-05 23:26:00,
2013-02-05 23:31:00,39.7,29.3,29.54,North,0,30.0,36.0,66,0.00,,,0.09,meteohub,2013-02-05 23:31:00,
2013-02-05 23:36:00,39.7,28.9,29.54,North,0,35.0,43.0,65,0.00,,,0.09,meteohub,2013-02-05 23:36:00,
2013-02-05 23:41:00,39.7,28.6,29.54,NNW,338,18.0,43.0,64,0.00,,,0.09,meteohub,2013-02-05 23:41:00,
2013-02-05 23:46:00,39.7,28.9,29.54,North,0,26.0,43.0,65,0.00,,,0.09,meteohub,2013-02-05 23:46:00,
2013-02-05 23:51:00,39.6,28.4,29.54,North,0,24.0,38.0,64,0.00,,,0.09,meteohub,2013-02-05 23:51:00,
2013-02-05 23:56:00,39.6,28.4,29.54,North,0,30.0,35.0,64,0.00,,,0.09,meteohub,2013-02-05 23:56:00,